When you browse on this site, cookies collect data to enhance your experience and personalize the content and advertising you see.
Visit our Privacy Policy to learn more. By continuing to use the site, you agree to this use of cookies and data.

Hourly Weather Penkovo

Today, 15 August, Saturday

Time Temperature Precipitation Wind Pressure Humidity
00:00 +9°C° 0 mm 2 mps 749 mmHg 87%
01:00 +9°C° 0 mm 2 mps 749 mmHg 88%
02:00 +9°C° 0 mm 2 mps 749 mmHg 92%
03:00 +9°C° 0 mm 2 mps 749 mmHg 92%
04:00 +9°C° 0 mm 2 mps 749 mmHg 93%
05:00 +9°C° 0 mm 2 mps 750 mmHg 93%
06:00 +10°C° 0 mm 3 mps 750 mmHg 86%
07:00 +12°C° 0 mm 3 mps 749 mmHg 80%
08:00 +14°C° 0 mm 3 mps 749 mmHg 73%
09:00 +16°C° 0 mm 3 mps 749 mmHg 68%
10:00 +18°C° 0 mm 3 mps 749 mmHg 63%
11:00 +19°C° 0 mm 3 mps 749 mmHg 58%
12:00 +19°C° 0 mm 3 mps 749 mmHg 58%
13:00 +19°C° 0 mm 3 mps 749 mmHg 57%
14:00 +19°C° 0 mm 3 mps 749 mmHg 57%
15:00 +19°C° 0 mm 3 mps 749 mmHg 61%
16:00 +19°C° 0 mm 3 mps 749 mmHg 65%
17:00 +18°C° 0 mm 2 mps 748 mmHg 69%
18:00 +17°C° 0.1 mm 2 mps 748 mmHg 72%
19:00 +16°C° 0.1 mm 2 mps 748 mmHg 75%
20:00 +15°C° 0.1 mm 2 mps 748 mmHg 78%
21:00 +15°C° 0 mm 2 mps 748 mmHg 80%
22:00 +15°C° 0 mm 2 mps 748 mmHg 82%
23:00 +15°C° 0 mm 1 mps 748 mmHg 84%

Tomorrow, 16 August, Sunday

Time Temperature Precipitation Wind Pressure Humidity
00:00 +14°C° 0 mm 1 mps 748 mmHg 86%
01:00 +14°C° 0 mm 1 mps 748 mmHg 89%
02:00 +13°C° 0 mm 2 mps 748 mmHg 91%
03:00 +13°C° 0 mm 1 mps 748 mmHg 92%
04:00 +13°C° 0 mm 1 mps 747 mmHg 93%
05:00 +12°C° 0 mm 1 mps 747 mmHg 93%
06:00 +14°C° 0 mm 1 mps 747 mmHg 89%
07:00 +15°C° 0 mm 1 mps 747 mmHg 84%
08:00 +18°C° 0 mm 1 mps 747 mmHg 79%
09:00 +18°C° 0 mm 2 mps 747 mmHg 75%
10:00 +19°C° 0 mm 2 mps 747 mmHg 72%
11:00 +20°C° 0 mm 2 mps 747 mmHg 68%
12:00 +20°C° 0 mm 2 mps 747 mmHg 66%
13:00 +21°C° 0 mm 2 mps 747 mmHg 65%
14:00 +21°C° 0 mm 2 mps 747 mmHg 63%
15:00 +21°C° 0 mm 2 mps 747 mmHg 66%
16:00 +21°C° 0 mm 2 mps 746 mmHg 69%
17:00 +21°C° 0 mm 2 mps 746 mmHg 72%
18:00 +20°C° 0 mm 2 mps 746 mmHg 76%
19:00 +18°C° 0 mm 2 mps 746 mmHg 81%
20:00 +17°C° 0 mm 2 mps 746 mmHg 86%
21:00 +17°C° 0 mm 2 mps 746 mmHg 88%
22:00 +16°C° 0 mm 3 mps 746 mmHg 91%
23:00 +16°C° 0 mm 3 mps 746 mmHg 93%

Day after tomorrow, 17 August, Monday

Time Temperature Precipitation Wind Pressure Humidity
00:00 +16°C° 0 mm 3 mps 746 mmHg 93%
01:00 +16°C° 0 mm 3 mps 746 mmHg 94%
02:00 +16°C° 0 mm 3 mps 746 mmHg 94%
03:00 +14°C° 0 mm 3 mps 746 mmHg 94%
04:00 +14°C° 0 mm 3 mps 746 mmHg 94%
05:00 +14°C° 0 mm 3 mps 745 mmHg 94%
06:00 +17°C° 0 mm 3 mps 746 mmHg 88%
07:00 +19°C° 0 mm 4 mps 746 mmHg 82%
08:00 +21°C° 0 mm 4 mps 746 mmHg 76%
09:00 +22°C° 0 mm 4 mps 745 mmHg 71%
10:00 +23°C° 0 mm 5 mps 745 mmHg 66%
11:00 +26°C° 0 mm 5 mps 745 mmHg 61%
12:00 +26°C° 0.1 mm 5 mps 745 mmHg 60%
13:00 +26°C° 0.1 mm 6 mps 745 mmHg 60%
14:00 +26°C° 0.1 mm 6 mps 745 mmHg 59%
15:00 +26°C° 0.4 mm 5 mps 744 mmHg 64%
16:00 +25°C° 0.4 mm 4 mps 744 mmHg 68%
17:00 +24°C° 0.4 mm 3 mps 744 mmHg 73%
18:00 +22°C° 0 mm 3 mps 744 mmHg 77%
19:00 +21°C° 0 mm 3 mps 745 mmHg 80%
20:00 +19°C° 0 mm 3 mps 745 mmHg 84%
21:00 +19°C° 0 mm 3 mps 745 mmHg 86%
22:00 +18°C° 0 mm 3 mps 745 mmHg 89%
23:00 +17°C° 0 mm 3 mps 745 mmHg 91%

18 August, Tuesday

Time Temperature Precipitation Wind Pressure Humidity
00:00 +17°C° 0 mm 2 mps 745 mmHg 92%
01:00 +17°C° 0 mm 2 mps 745 mmHg 93%
02:00 +16°C° 0 mm 2 mps 745 mmHg 93%
03:00 +16°C° 0 mm 2 mps 745 mmHg 94%
04:00 +16°C° 0 mm 1 mps 745 mmHg 94%
05:00 +16°C° 0 mm 1 mps 745 mmHg 94%
06:00 +18°C° 0 mm 1 mps 745 mmHg 88%
07:00 +20°C° 0 mm 1 mps 745 mmHg 83%
08:00 +21°C° 0 mm 1 mps 745 mmHg 77%
09:00 +22°C° 0 mm 1 mps 745 mmHg 72%
10:00 +23°C° 0 mm 1 mps 745 mmHg 68%
11:00 +24°C° 0 mm 1 mps 745 mmHg 63%
12:00 +25°C° 0 mm 1 mps 745 mmHg 61%
13:00 +25°C° 0 mm 1 mps 745 mmHg 58%
14:00 +26°C° 0 mm 1 mps 744 mmHg 56%
15:00 +25°C° 0 mm 1 mps 744 mmHg 59%
16:00 +25°C° 0 mm 1 mps 744 mmHg 62%
17:00 +25°C° 0 mm 1 mps 744 mmHg 65%
18:00 +23°C° 0 mm 1 mps 744 mmHg 69%
19:00 +22°C° 0 mm 1 mps 744 mmHg 72%
20:00 +20°C° 0 mm 1 mps 744 mmHg 75%
21:00 +20°C° 0.5 mm 1 mps 744 mmHg 79%
22:00 +20°C° 0.5 mm 1 mps 744 mmHg 83%
23:00 +19°C° 0.5 mm 1 mps 744 mmHg 88%

19 August, Wednesday

Time Temperature Precipitation Wind Pressure Humidity
00:00 +19°C° 0.1 mm 1 mps 744 mmHg 88%
01:00 +19°C° 0.1 mm 1 mps 744 mmHg 88%
02:00 +19°C° 0.1 mm 1 mps 744 mmHg 89%
03:00 +19°C° 0 mm 1 mps 744 mmHg 89%
04:00 +19°C° 0 mm 1 mps 744 mmHg 90%
05:00 +19°C° 0 mm 1 mps 744 mmHg 90%
06:00 +19°C° 0.1 mm 1 mps 744 mmHg 88%
07:00 +20°C° 0.1 mm 1 mps 744 mmHg 86%
08:00 +21°C° 0.1 mm 1 mps 744 mmHg 84%
09:00 +21°C° 0.1 mm 1 mps 744 mmHg 82%
10:00 +21°C° 0.1 mm 2 mps 744 mmHg 80%
11:00 +21°C° 0.1 mm 2 mps 744 mmHg 78%
12:00 +21°C° 0.3 mm 3 mps 744 mmHg 80%
13:00 +21°C° 0.3 mm 4 mps 744 mmHg 81%
14:00 +20°C° 0.3 mm 4 mps 744 mmHg 83%
15:00 +20°C° 0.1 mm 4 mps 743 mmHg 84%
16:00 +19°C° 0.1 mm 3 mps 743 mmHg 86%
17:00 +19°C° 0.1 mm 3 mps 743 mmHg 88%
18:00 +19°C° 0 mm 3 mps 743 mmHg 88%
19:00 +18°C° 0 mm 3 mps 743 mmHg 88%
20:00 +18°C° 0 mm 3 mps 743 mmHg 88%
21:00 +18°C° 0 mm 4 mps 743 mmHg 89%
22:00 +18°C° 0 mm 4 mps 743 mmHg 90%
23:00 +18°C° 0 mm 4 mps 742 mmHg 91%

20 August, Thursday

Time Temperature Precipitation Wind Pressure Humidity
00:00 +18°C° 0 mm 4 mps 742 mmHg 92%
01:00 +18°C° 0 mm 3 mps 742 mmHg 92%
02:00 +18°C° 0 mm 3 mps 742 mmHg 93%
03:00 +18°C° 0.1 mm 3 mps 742 mmHg 92%
04:00 +18°C° 0.1 mm 4 mps 742 mmHg 91%
05:00 +18°C° 0.1 mm 4 mps 742 mmHg 90%
06:00 +19°C° 0.3 mm 4 mps 742 mmHg 87%
07:00 +19°C° 0.3 mm 4 mps 742 mmHg 85%
08:00 +20°C° 0.3 mm 4 mps 742 mmHg 83%
09:00 +20°C° 0.4 mm 4 mps 742 mmHg 82%
10:00 +21°C° 0.4 mm 3 mps 742 mmHg 81%
11:00 +21°C° 0.4 mm 3 mps 742 mmHg 80%
12:00 +21°C° 0.1 mm 3 mps 742 mmHg 81%
13:00 +21°C° 0.1 mm 3 mps 742 mmHg 81%
14:00 +20°C° 0.1 mm 3 mps 742 mmHg 82%
15:00 +21°C° 0.1 mm 3 mps 742 mmHg 83%
16:00 +21°C° 0.1 mm 3 mps 742 mmHg 84%
17:00 +21°C° 0.1 mm 3 mps 742 mmHg 85%
18:00 +20°C° 0.1 mm 3 mps 742 mmHg 86%
19:00 +20°C° 0.1 mm 3 mps 742 mmHg 86%
20:00 +19°C° 0.1 mm 3 mps 742 mmHg 87%
21:00 +19°C° 0 mm 3 mps 742 mmHg 88%
22:00 +19°C° 0 mm 3 mps 742 mmHg 89%
23:00 +19°C° 0 mm 3 mps 742 mmHg 90%
Show more